Wetbulb
79.82 80.00 80.24 80.32 80.51 80.97 79.80 80.12 80.15 81.27 81.99 80.27 81.09 79.78 79.78 79.71 80.31 80.35 79.87 79.44 78.18 77.87 77.64 77.53 75.90 76.82 71.53 70.92 71.27 70.79 69.60 69.19 66.55 68.20 70.11 73.63 75.20 73.09 72.52 73.01 72.23 73.08 71.02
79.55 79.75 79.97 80.52 80.60 80.30 80.25 80.32 81.14 80.71 81.48 81.79 80.52 80.48 79.88 79.71 80.16 80.12 78.99 77.32 78.22 76.98 76.62 76.62 75.74 73.50 75.89 75.67 71.46 75.05 71.52 73.18 68.13 73.16 73.35 71.03 72.70 74.78 74.93 74.76 72.03 70.72 71.60
78.84 78.78 79.61 79.92 80.30 80.09 80.23 80.86 81.03 80.93 81.15 81.24 80.95 80.59 80.09 79.70 79.76 80.54 79.91 79.23 78.36 78.13 77.59 76.76 75.83 75.47 76.02 71.94 72.35 71.69 70.76 71.93 71.62 68.60 68.20 70.27 70.87 71.42 72.56 74.14 74.22 73.46 71.01
77.74 78.01 78.66 79.77 79.85 80.17 80.45 81.22 80.94 81.39 80.84 81.15 81.20 80.79 80.74 80.45 79.71 79.89 79.65 79.50 78.92 78.43 78.35 77.62 76.81 75.49 74.92 75.45 74.37 73.62 74.19 71.38 71.07 69.49 68.26 68.03 69.57 73.03 70.78 68.93 69.52 70.35 69.79
78.19 78.35 78.52 79.91 80.66 80.96 80.58 80.60 80.94 81.18 81.01 81.35 81.22 81.00 81.23 80.55 79.00 79.34 79.25 79.39 79.36 78.79 78.89 78.49 77.63 75.64 71.55 73.13 72.90 73.16 72.87 71.66 68.69 68.67 67.93 67.82 67.31 68.05 69.25 69.46 68.06 68.81 69.30
78.35 78.01 79.14 79.71 80.48 80.58 80.64 80.58 81.04 80.85 81.13 81.14 80.88 80.62 80.50 79.85 71.38 68.60 75.84 78.78 79.32 79.14 78.60 78.73 78.31 72.82 71.61 67.30 67.47 67.77 71.50 72.91 71.07 68.28 68.04 68.66 72.73 71.44 69.68 68.72 68.23 66.96 65.77
77.75 79.39 79.04 79.68 79.50 80.20 80.69 80.57 80.29 80.38 80.99 80.75 80.58 80.85 80.34 80.66 67.99 66.14 68.48 78.41 79.05 79.01 79.36 79.19 78.34 76.32 73.04 74.65 66.73 66.07 65.84 66.01 69.06 72.48 70.73 71.74 74.38 73.51 73.38 73.17 71.97 69.52 67.32
78.39 77.61 79.53 79.36 79.62 80.21 80.40 80.21 80.68 80.71 80.60 80.43 80.58 80.86 80.57 80.48 67.06 63.09 66.32 77.08 77.98 78.48 78.20 78.24 78.27 77.60 75.92 74.44 73.97 70.51 69.74 69.90 69.42 69.85 72.63 72.99 72.95 75.32 74.77 74.00 73.05 72.12 70.69
77.94 78.23 78.15 79.75 79.56 79.99 79.70 80.21 80.52 80.32 80.29 80.18 80.37 80.52 80.14 80.24 65.01 62.59 65.64 75.82 76.58 76.87 77.28 78.11 77.96 77.69 71.77 65.88 74.28 72.87 70.53 70.10 65.83 64.28 64.60 64.63 66.23 66.93 69.46 71.41 67.91 67.49 65.34
77.83 78.51 79.52 80.10 80.04 79.59 80.20 80.34 80.55 80.51 80.00 79.00 79.66 80.34 76.25 79.95 65.56 60.38 66.08 76.68 75.77 75.43 76.56 76.48 67.81 75.18 66.80 61.71 73.80 74.12 72.45 70.50 70.07 69.23 67.55 65.86 65.75 66.56 64.40 70.83 70.24 66.33 68.06
77.85 78.83 79.94 80.26 80.40 80.55 80.69 80.80 80.46 80.04 78.89 79.31 79.27 79.79 80.23 78.51 77.57 58.85 59.56 74.70 74.33 74.39 75.00 75.64 76.74 63.75 62.60 58.73 63.16 74.99 72.43 71.83 67.42 69.52 68.29 68.00 68.41 69.41 67.86 67.79 69.75 68.28 67.81
79.36 78.80 79.65 80.37 79.49 79.30 80.83 80.69 80.60 80.07 79.16 79.31 78.68 78.64 78.75 80.36 68.80 59.29 61.65 63.93 70.84 75.81 74.90 75.78 75.86 60.07 59.88 57.19 59.95 65.38 60.84 64.69 69.87 68.43 67.93 67.52 67.50 67.86 68.55 68.16 68.99 69.97 69.58
79.93 79.52 79.88 80.48 79.94 80.08 79.76 80.11 78.37 79.24 76.76 76.53 76.01 75.83 76.01 77.37 78.27 62.67 59.96 59.18 59.00 70.45 76.45 69.25 60.65 54.08 54.67 56.63 58.86 59.41 60.68 68.79 68.59 67.12 66.42 66.26 67.19 68.16 68.48 68.24 69.26 69.80 68.41
79.50 79.89 80.07 79.77 79.64 79.68 78.36 77.86 77.00 76.42 76.17 75.60 75.38 75.06 75.84 75.84 76.29 77.22 75.77 68.69 58.80 64.60 65.93 71.52 67.09 62.54 60.13 63.70 60.51 61.84 67.77 67.41 67.51 67.84 67.01 67.48 67.82 67.00 65.81 65.51 63.58 63.15 61.69
77.78 77.19 78.25 77.52 77.53 78.02 76.92 72.46 76.55 74.84 68.58 76.03 76.05 76.07 75.24 75.11 75.08 65.04 69.90 75.89 73.01 68.16 68.40 68.52 65.42 64.96 62.88 63.93 64.45 66.31 67.91 68.94 67.73 68.35 68.07 67.53 65.37 63.95 63.69 62.90 62.49 62.29 59.79
76.07 76.18 75.88 76.40 76.84 77.11 74.42 69.95 48.73 49.62 46.25 45.76 45.56 59.10 73.37 57.66 53.06 53.79 53.06 53.43 52.16 53.79 68.05 65.58 64.43 63.57 62.98 63.14 64.43 64.99 66.18 66.63 67.78 66.46 65.43 64.37 63.78 62.35 61.23 61.92 62.23 61.38 60.65
78.29 78.26 76.00 74.23 76.42 76.57 76.60 75.15 73.42 56.62 46.86 45.43 44.72 44.91 44.11 42.92 45.63 44.54 43.27 47.26 46.90 54.15 66.21 64.03 63.65 63.65 63.61 64.25 64.20 64.59 64.61 66.25 66.92 65.47 65.14 65.35 62.77 61.85 61.68 60.94 61.58 61.51 59.68
75.17 63.15 75.32 75.20 75.31 75.20 74.75 73.19 73.61 72.94 72.14 69.77 50.10 50.22 44.14 43.93 43.06 43.46 45.99 54.10 61.73 62.31 64.15 62.93 63.11 63.19 63.41 63.00 63.62 63.39 65.82 65.83 65.00 67.12 65.65 62.29 62.77 63.05 61.67 62.13 61.62 60.49 59.52
73.80 73.52 73.81 74.08 73.95 71.66 72.77 72.09 71.24 70.35 69.37 68.20 65.53 56.62 50.42 44.36 45.63 47.62 50.71 62.76 61.88 62.22 64.43 64.67 64.71 63.98 63.54 63.50 63.96 64.35 64.53 64.75 64.47 63.35 62.69 63.17 63.73 63.25 62.57 61.48 61.15 53.77 56.28
70.53 63.71 67.41 71.37 70.79 71.19 70.98 70.25 69.36 69.27 68.50 68.57 68.44 68.51 63.88 62.35 64.65 62.94 64.55 66.09 64.94 64.89 66.17 66.88 67.20 66.76 66.57 64.70 64.39 64.16 64.38 62.62 62.74 63.27 64.02 64.75 64.29 63.44 61.93 61.50 60.54 58.84 57.71
69.91 69.82 65.92 70.40 70.26 70.11 69.70 68.87 67.57 67.43 67.99 68.17 67.64 64.08 51.92 66.09 65.42 65.37 64.00 65.15 65.51 65.24 66.49 66.95 67.10 66.41 66.24 65.70 64.82 62.79 62.65 62.75 63.72 63.19 62.42 63.31 64.19 62.18 62.63 61.70 60.59 59.08 56.85
69.99 69.70 69.46 69.06 68.81 68.28 67.94 67.33 67.02 66.59 66.08 64.53 64.70 61.81 48.89 64.30 65.55 65.83 65.11 65.98 66.98 67.31 67.64 67.31 66.76 66.13 65.18 64.24 63.13 63.81 64.10 63.76 64.48 64.52 64.37 64.13 63.46 62.38 61.59 59.95 58.84 57.04 55.35
67.86 68.43 68.32 67.83 67.32 64.10 66.67 67.55 66.86 66.88 66.49 66.01 65.46 64.12 64.18 66.13 66.81 66.03 64.41 65.36 66.54 67.39 66.90 66.47 65.14 63.65 63.94 64.94 64.89 64.10 63.80 63.99 64.67 65.30 64.47 63.32 62.02 61.00 60.26 58.90 56.65 55.17 54.54
64.66 64.87 65.02 65.47 64.98 65.55 66.25 66.42 65.68 60.66 65.21 65.77 66.17 66.39 66.78 67.09 66.92 66.92 67.42 67.59 67.91 67.91 67.50 66.83 66.65 66.51 65.93 65.74 66.46 65.76 65.70 65.48 65.11 64.26 64.12 62.23 60.65 57.64 59.09 57.04 55.68 55.30 54.72
63.03 62.02 62.21 64.29 64.00 64.72 64.88 63.54 63.62 65.73 65.56 66.07 64.85 64.23 64.98 65.85 65.47 65.83 66.36 66.80 67.23 66.84 67.13 66.97 66.53 66.29 65.67 64.82 64.22 63.49 47.77 44.39 59.95 53.81 62.28 61.69 60.50 60.31 57.17 56.23 55.82 55.20 54.66
60.32 59.84 59.95 60.32 60.55 61.23 60.77 59.80 59.97 59.97 61.12 61.25 62.24 63.15 64.16 63.78 63.39 62.55 64.19 64.46 64.56 64.45 64.38 64.23 64.17 64.10 63.66 62.98 61.92 45.71 35.97 41.74 52.54 42.00 58.52 59.23 58.16 57.48 56.61 55.93 55.73 54.56 54.18
MSLP
1005.59 1006.11 1006.86 1007.49 1008.22 1009.03 1009.36 1009.69 1010.22 1010.62 1010.91 1011.32 1011.65 1012.30 1012.89 1013.35 1013.74 1014.14 1014.40 1014.41 1015.02 1015.46 1015.52 1015.58 1016.04 1016.30 1015.89 1015.86 1016.15 1016.22 1016.25 1016.34 1016.21 1015.84 1016.05 1016.96 1017.57 1017.91 1017.92 1018.16 1018.38 1018.59 1018.50
1004.12 1005.09 1005.55 1006.23 1007.03 1007.59 1008.17 1008.76 1009.25 1009.65 1010.19 1010.40 1011.03 1011.49 1012.04 1012.54 1012.93 1013.30 1013.70 1013.66 1014.00 1014.61 1014.86 1015.01 1015.22 1015.75 1016.13 1016.09 1015.87 1016.03 1015.99 1016.03 1016.28 1016.26 1016.22 1016.85 1017.41 1017.79 1017.96 1017.97 1018.01 1017.50 1017.35
1003.10 1003.86 1004.62 1005.14 1005.71 1006.15 1006.88 1007.74 1008.29 1008.90 1009.33 1009.75 1010.21 1010.56 1011.11 1011.56 1012.00 1012.35 1012.80 1013.17 1013.06 1013.36 1013.82 1014.33 1014.70 1015.36 1015.71 1015.80 1015.93 1015.64 1016.04 1016.28 1016.37 1016.65 1016.34 1016.49 1016.62 1017.34 1017.57 1017.83 1017.85 1017.85 1017.82
1001.48 1002.56 1003.29 1003.96 1004.38 1005.02 1005.90 1006.60 1007.29 1007.80 1008.32 1008.72 1009.28 1009.81 1010.27 1010.88 1011.23 1011.40 1011.72 1011.97 1012.16 1012.33 1012.89 1013.55 1014.14 1014.65 1014.95 1015.31 1015.53 1015.91 1015.92 1016.04 1016.25 1016.39 1016.39 1016.16 1016.24 1016.67 1017.16 1017.34 1017.44 1017.43 1017.21
1000.00 1000.93 1001.84 1002.85 1003.72 1004.54 1005.00 1005.47 1006.13 1006.76 1007.35 1008.05 1008.52 1008.97 1009.39 1009.79 1010.08 1010.50 1010.71 1011.01 1011.45 1011.85 1012.20 1012.73 1013.20 1013.51 1013.80 1014.35 1014.90 1015.11 1015.41 1015.73 1015.87 1016.20 1016.57 1016.41 1016.25 1016.18 1016.56 1016.65 1016.84 1016.66 1016.94
998.70 999.50 1000.69 1001.83 1002.79 1003.43 1004.09 1004.60 1005.26 1005.68 1006.22 1006.92 1007.25 1007.81 1008.41 1008.74 1008.99 1009.44 1010.06 1010.46 1010.80 1011.18 1011.34 1011.34 1011.96 1012.28 1012.68 1013.30 1013.79 1014.11 1014.49 1015.06 1015.43 1014.91 1014.95 1015.10 1015.27 1015.38 1015.69 1016.29 1016.41 1016.41 1016.56
998.09 998.82 999.72 1000.64 1001.47 1002.35 1003.16 1003.71 1003.89 1004.35 1005.34 1005.72 1006.37 1006.87 1007.09 1007.28 1007.46 1008.04 1008.93 1009.55 1009.73 1009.97 1010.50 1010.92 1010.84 1011.08 1011.66 1012.57 1013.29 1013.59 1013.81 1014.00 1013.90 1014.32 1014.60 1014.57 1014.74 1015.18 1015.54 1015.91 1016.28 1016.54 1016.64
997.44 998.15 998.68 999.57 1000.51 1001.46 1002.14 1002.54 1003.51 1004.12 1004.40 1004.92 1005.43 1005.82 1006.17 1006.35 1006.96 1007.76 1008.28 1008.76 1008.93 1009.02 1009.10 1009.26 1009.47 1010.00 1010.59 1011.37 1011.79 1012.41 1012.87 1013.18 1013.49 1014.26 1014.57 1014.97 1015.05 1015.18 1015.35 1016.05 1016.50 1016.68 1016.58
996.61 997.11 997.87 998.78 999.66 1000.38 1000.96 1001.94 1002.68 1003.29 1003.61 1003.80 1004.14 1004.54 1004.71 1005.07 1005.74 1006.43 1007.55 1007.96 1007.79 1007.74 1007.68 1007.44 1007.67 1008.32 1009.17 1010.03 1010.61 1010.87 1011.32 1011.80 1012.31 1012.92 1013.61 1014.75 1014.98 1015.32 1015.80 1016.01 1015.91 1016.27 1016.11
995.28 996.39 997.53 998.19 998.82 999.49 1000.19 1000.76 1001.46 1002.04 1002.40 1002.83 1002.92 1002.98 1003.29 1003.85 1004.64 1005.62 1006.26 1006.37 1006.93 1007.05 1006.34 1006.54 1007.02 1007.47 1008.09 1008.67 1009.25 1009.55 1010.00 1010.32 1011.42 1012.87 1014.15 1014.41 1014.93 1015.37 1015.55 1015.61 1015.59 1015.64 1015.88
994.69 995.63 996.52 997.35 998.08 998.87 999.50 1000.01 1000.56 1001.10 1001.44 1001.85 1001.92 1002.14 1002.60 1003.24 1003.57 1004.37 1004.97 1004.69 1002.36 1003.47 1004.21 1004.16 1004.81 1005.81 1006.62 1007.44 1008.19 1008.99 1009.25 1010.28 1011.25 1012.43 1013.29 1013.99 1014.92 1015.16 1015.21 1015.12 1014.72 1015.19 1015.35
994.03 994.75 995.64 996.43 997.21 997.86 998.65 999.37 999.96 1000.40 1000.81 1000.87 1001.30 1001.34 1001.54 1002.02 1002.55 1003.28 1002.37 1000.94 1001.89 1002.10 1002.32 1002.64 1003.39 1004.04 1004.59 1005.53 1006.30 1007.05 1008.24 1008.87 1009.56 1011.35 1012.64 1012.67 1013.59 1013.58 1014.04 1014.49 1013.40 1014.39 1014.55
993.79 994.31 994.94 995.70 996.43 996.93 997.83 998.64 999.42 1000.03 1000.14 1000.45 1000.45 1000.78 1000.73 1000.95 1001.86 1002.71 1003.01 1003.66 1004.36 1004.07 1003.15 1003.32 1003.69 1003.98 1004.47 1005.21 1005.53 1006.60 1007.35 1007.47 1005.55 1009.24 1010.02 1010.31 1011.10 1012.98 1013.59 1013.60 1013.16 1013.92 1014.65
993.61 994.09 994.61 995.17 995.88 996.72 997.48 998.46 999.00 999.31 999.85 999.90 999.86 999.95 1000.07 1000.50 1000.80 1000.90 1001.47 1002.72 1003.77 1004.42 1004.07 1004.11 1004.44 1004.78 1004.60 1004.58 1005.52 1006.16 1006.12 1004.80 1007.28 1008.38 1009.57 1010.53 1010.85 1011.42 1012.50 1012.52 1012.93 1014.01 1014.27
993.56 993.99 994.38 994.89 995.75 996.47 997.45 998.89 999.04 999.65 1000.08 999.77 999.80 999.65 999.80 999.98 1000.26 1000.85 1000.21 1000.30 1001.69 1002.43 1003.17 1004.13 1004.78 1004.95 1004.65 1004.88 1005.33 1005.91 1006.40 1006.33 1007.43 1007.91 1009.21 1009.72 1010.54 1011.02 1011.99 1012.25 1012.90 1013.44 1013.69
993.38 993.69 994.19 994.07 995.20 995.68 997.46 999.52 1000.38 1000.38 1000.62 1000.63 1000.84 1001.03 1000.43 1001.08 1001.09 1000.82 1000.80 1001.11 1001.53 1002.09 1003.14 1003.61 1003.82 1003.95 1003.99 1004.22 1004.63 1005.32 1005.76 1006.47 1007.22 1008.03 1008.84 1009.22 1010.28 1010.91 1011.53 1011.87 1012.37 1012.67 1012.52
992.99 993.04 993.36 993.41 994.27 994.75 995.87 997.65 999.27 1001.14 1000.93 1000.96 1001.26 1001.48 1001.74 1002.05 1001.71 1001.88 1002.32 1002.46 1002.74 1003.02 1002.78 1003.22 1003.65 1003.86 1003.97 1004.28 1004.27 1004.99 1005.85 1006.29 1006.96 1007.80 1008.52 1009.18 1010.26 1010.67 1010.87 1011.40 1012.05 1012.18 1012.09
993.83 993.84 993.70 993.72 994.17 994.90 996.15 997.44 997.96 999.04 999.75 1000.33 1001.48 1001.52 1002.05 1002.16 1002.37 1002.45 1002.71 1002.52 1003.11 1003.50 1003.35 1003.58 1003.91 1004.25 1004.47 1004.57 1004.70 1005.32 1005.57 1006.12 1006.97 1007.58 1008.39 1009.19 1009.82 1009.81 1010.25 1010.63 1011.20 1011.50 1011.82
994.25 994.57 994.77 994.63 994.78 995.61 996.43 997.10 997.44 998.41 999.11 999.65 1000.75 1001.82 1002.70 1002.73 1002.84 1002.93 1002.94 1003.07 1003.20 1003.35 1003.54 1003.75 1003.90 1004.06 1004.15 1004.41 1004.52 1004.81 1005.54 1006.27 1006.89 1007.43 1008.13 1008.86 1008.79 1008.96 1009.48 1009.91 1010.19 1010.70 1011.31
995.62 995.95 995.72 995.89 996.18 996.37 996.78 996.94 997.63 998.27 998.98 999.44 999.52 999.84 1001.89 1002.47 1002.42 1002.92 1002.94 1003.04 1002.89 1002.87 1002.83 1003.06 1003.61 1003.68 1004.13 1004.24 1004.74 1005.27 1005.79 1006.60 1007.25 1007.62 1007.95 1007.72 1007.88 1008.16 1008.60 1009.13 1009.44 1010.27 1011.13
995.54 996.11 995.91 996.21 996.42 996.92 997.39 998.04 998.50 998.89 999.05 999.81 1000.09 1000.93 1001.27 1001.46 1001.27 1001.77 1002.69 1002.71 1002.38 1002.63 1002.95 1003.07 1003.46 1003.91 1004.46 1004.99 1004.93 1005.55 1006.19 1006.14 1007.10 1007.35 1007.12 1007.34 1007.49 1007.70 1007.96 1008.43 1009.09 1009.65 1010.35
994.94 995.30 995.56 995.63 996.19 996.90 997.56 998.21 998.47 999.17 999.62 1000.01 1000.46 1001.47 1002.14 1002.42 1002.07 1001.81 1002.64 1002.61 1002.25 1002.55 1003.01 1003.35 1003.79 1004.14 1004.50 1004.61 1005.05 1005.02 1005.84 1006.15 1006.21 1006.28 1006.33 1006.60 1006.99 1007.44 1007.80 1008.28 1008.85 1009.46 1009.87
995.99 996.29 996.78 997.44 997.65 997.74 998.17 997.96 998.45 998.83 999.40 999.78 1000.39 1001.28 1001.86 1001.64 1002.14 1002.07 1002.03 1002.57 1002.76 1002.58 1003.05 1003.60 1004.06 1004.58 1004.48 1004.29 1004.65 1004.82 1004.50 1004.85 1005.52 1005.72 1005.84 1006.21 1006.73 1007.37 1007.85 1008.21 1008.54 1009.08 1009.44
997.19 997.44 997.81 998.29 998.45 998.34 998.52 999.11 1000.48 1000.28 1000.20 1000.79 1000.71 1000.44 1001.17 1001.18 1001.33 1001.46 1001.56 1001.76 1002.04 1002.50 1003.07 1003.48 1003.59 1003.73 1004.19 1004.14 1003.93 1004.08 1004.42 1004.46 1004.82 1005.48 1005.79 1006.30 1006.66 1007.34 1007.55 1008.00 1008.39 1008.76 1009.09
999.21 999.40 999.38 999.53 999.82 999.81 1000.00 1000.73 1001.67 1000.96 1001.01 1001.11 1001.26 1001.44 1001.30 1001.57 1001.43 1001.02 1001.17 1001.49 1001.54 1001.87 1002.13 1002.34 1002.63 1002.77 1003.17 1003.48 1003.84 1004.12 1005.18 1005.29 1005.37 1005.59 1006.03 1006.34 1006.73 1007.04 1007.49 1007.72 1008.12 1008.52 1008.99
1001.25 1001.48 1001.44 1001.37 1001.89 1001.97 1002.61 1002.86 1003.28 1003.29 1002.97 1003.17 1002.72 1002.88 1002.83 1002.62 1002.27 1002.22 1001.80 1001.73 1001.95 1002.34 1002.50 1002.37 1002.60 1003.12 1003.14 1003.46 1003.94 1005.14 1005.48 1005.98 1006.20 1006.27 1006.16 1006.42 1006.73 1007.01 1007.41 1007.76 1008.04 1008.34 1008.66
Wind_Speed
23 22 21 20 20 19 17 16 16 14 13 14 11 13 13 14 13 12 12 10 13 11 10 9 11 9 8 8 7 7 6 6 7 6 3 7 6 5 5 6 7 7 9
22 21 22 20 20 20 19 19 18 17 16 15 15 15 15 15 14 15 15 14 13 14 14 12 12 10 10 8 7 7 8 6 7 5 4 6 7 9 7 6 7 8 7
22 22 20 21 20 21 20 19 19 18 17 17 17 16 17 16 16 15 15 15 14 15 15 14 13 11 10 11 10 9 9 6 6 8 7 7 6 7 8 7 6 7 6
23 23 20 20 22 20 19 19 19 19 19 18 17 17 17 17 17 17 18 17 17 15 15 14 14 14 14 13 11 11 8 8 8 8 8 8 7 6 6 7 8 8 8
21 21 21 20 18 17 18 19 19 19 18 18 18 18 18 18 16 18 18 18 17 16 15 15 15 17 18 15 11 12 11 10 9 8 8 8 8 7 8 7 8 7 5
18 21 19 19 18 19 18 18 18 19 19 18 19 19 19 16 19 18 19 16 17 16 16 16 15 18 18 18 17 13 14 11 11 10 9 9 8 6 6 7 7 6 5
18 16 19 19 20 19 18 18 20 20 17 19 19 19 20 21 19 21 21 17 16 16 16 14 16 15 17 16 15 18 16 13 15 11 9 7 3 6 6 4 5 6 7
16 19 18 19 18 18 19 19 16 15 17 16 17 19 18 17 14 15 19 20 17 17 17 19 19 18 15 19 18 17 18 15 12 8 6 5 5 5 3 5 6 6 7
17 19 19 17 18 18 19 17 16 15 16 17 17 19 21 19 18 19 17 15 19 20 19 21 21 20 19 22 19 18 18 17 12 14 10 3 4 4 5 6 8 8 8
19 16 16 16 17 18 17 18 16 16 16 15 18 20 22 19 16 18 18 12 15 16 21 21 17 20 19 21 22 19 18 17 14 10 6 3 5 5 6 7 6 8 4
14 15 15 16 16 16 16 15 15 15 15 16 17 17 18 18 16 20 22 18 21 19 17 16 15 23 21 22 25 17 16 10 12 9 9 7 7 8 7 7 8 7 4
13 14 15 16 15 15 16 14 14 14 15 14 16 14 14 15 18 24 37 38 24 17 19 16 14 20 28 25 23 23 16 17 12 9 8 7 9 11 10 10 10 8 4
12 13 14 15 15 13 15 14 13 13 14 14 14 14 13 12 13 16 11 11 16 11 11 5 6 10 15 15 19 15 17 8 13 14 15 12 11 9 10 8 8 7 3
12 12 12 13 13 13 12 12 12 13 14 13 13 12 12 12 12 11 12 8 5 11 11 9 6 6 11 10 13 14 13 17 17 14 11 11 10 10 8 8 8 7 7
11 11 11 11 12 12 4 2 10 2 4 11 11 10 10 11 8 7 14 11 11 12 12 4 4 4 6 7 9 10 8 8 11 11 12 11 10 6 7 8 7 8 8
11 10 10 10 12 11 11 7 13 12 11 15 14 9 2 5 4 1 1 5 7 16 6 5 6 5 6 8 8 6 7 10 10 8 7 7 7 9 8 8 8 9 9
9 10 10 9 11 10 10 9 9 5 13 16 13 14 13 7 9 10 12 15 12 6 1 3 2 2 1 4 7 7 8 9 9 8 9 9 8 7 9 8 9 8 7
6 6 7 7 8 8 8 6 5 5 5 5 15 12 12 12 10 11 11 10 8 4 4 4 2 2 2 3 5 5 7 6 7 9 9 8 8 10 10 10 9 8 8
8 6 6 5 6 7 7 7 6 5 5 6 8 9 10 11 11 8 6 6 5 3 3 2 2 3 5 5 5 7 9 8 7 6 6 9 11 11 10 10 10 6 7
10 5 6 8 7 7 7 6 6 5 4 4 3 4 7 6 7 5 2 3 5 6 5 3 5 5 7 7 5 5 7 6 6 7 11 10 10 11 11 11 10 9 7
9 8 7 9 8 7 5 5 4 4 3 1 3 6 10 4 4 6 5 4 4 5 5 4 6 5 7 6 8 7 6 7 7 8 7 9 10 10 9 9 9 9 9
8 8 6 7 8 7 6 5 5 4 4 5 5 5 5 3 2 3 2 4 3 3 3 4 5 7 8 8 8 9 12 12 11 11 10 10 9 9 8 8 8 8 8
10 9 9 9 8 8 7 6 8 7 6 7 8 7 5 2 1 3 5 6 3 4 3 5 6 5 5 8 8 8 8 9 9 8 8 8 9 9 9 8 8 9 8
13 12 11 11 8 9 8 10 7 8 6 5 5 6 4 5 6 6 5 6 7 7 8 9 10 13 10 10 8 8 7 6 6 7 9 9 9 8 9 8 9 10 9
12 11 11 12 11 12 12 13 10 7 7 5 6 5 2 4 5 5 6 6 6 7 8 9 8 11 12 12 11 9 10 12 5 5 7 8 10 10 10 9 10 10 10
13 13 12 12 12 12 11 11 12 12 10 10 11 11 11 11 9 10 4 0 4 6 7 7 9 11 14 12 12 11 9 9 5 5 6 8 9 9 9 11 13 9 10
Wind_Direction
200 202 204 204 204 205 216 208 216 208 218 211 200 195 202 208 207 205 223 217 195 209 223 219 204 239 251 212 225 235 235 235 249 264 168 137 159 230 176 191 224 221 214
202 205 204 205 204 204 208 212 204 212 206 203 208 196 204 207 207 207 209 221 201 207 214 220 213 212 231 261 233 224 231 229 244 246 280 158 195 192 238 234 250 252 245
204 205 209 206 206 208 205 205 210 206 209 210 202 208 203 207 210 207 210 218 217 209 211 214 215 211 214 228 229 233 221 234 223 255 256 218 224 203 200 231 240 248 277
204 209 209 209 210 207 205 203 206 207 208 208 208 208 207 208 211 212 209 215 218 217 211 214 211 210 217 210 229 226 255 226 217 237 240 251 209 209 218 252 212 221 240
201 204 208 207 211 210 207 207 206 207 207 209 208 209 210 210 212 214 217 215 219 220 214 212 215 214 210 211 208 213 215 226 239 215 246 260 254 228 207 223 244 248 178
212 206 201 204 202 208 209 207 207 208 207 205 210 210 210 215 215 205 214 222 219 222 220 216 218 204 210 199 204 225 205 209 217 231 226 227 237 243 241 255 270 273 265
210 208 205 200 203 204 207 208 209 207 204 210 211 212 214 217 210 199 198 217 223 221 225 223 223 220 204 208 205 213 227 218 218 210 238 256 231 223 248 252 251 269 268
213 212 206 204 202 201 205 211 210 209 210 210 212 215 220 222 205 195 196 214 224 231 223 221 225 224 207 202 203 209 218 220 219 217 223 234 259 282 227 225 247 268 255
215 213 214 201 202 201 205 204 205 208 208 211 212 213 217 220 194 188 185 217 227 229 230 228 222 218 211 193 206 205 208 213 194 189 208 302 47 112 257 235 218 232 262
210 211 206 209 203 206 201 200 201 206 212 211 215 217 217 218 189 178 185 214 230 235 234 235 226 222 205 191 204 207 207 205 188 177 193 162 186 211 203 226 224 242 230
206 203 202 204 202 205 204 201 200 205 212 213 222 218 223 216 210 175 186 208 213 221 229 225 222 196 202 192 203 215 214 163 181 183 193 183 193 205 205 209 215 244 236
206 198 197 196 199 199 200 200 201 203 211 218 217 228 219 218 203 197 207 208 220 216 221 227 224 192 196 191 186 198 161 165 169 178 182 174 193 199 201 207 186 218 253
198 199 195 188 194 208 192 196 200 202 219 213 222 223 232 216 223 226 244 232 267 267 255 288 356 174 186 184 186 170 179 225 145 175 191 180 175 194 209 198 169 169 187
196 198 192 186 188 201 186 196 207 208 211 227 214 227 225 227 234 227 227 208 210 250 248 251 272 206 187 177 164 161 192 161 210 191 182 193 177 177 194 174 162 169 189
195 197 192 193 186 186 191 262 211 164 308 221 226 220 226 230 233 315 231 211 209 216 228 192 192 200 175 171 178 180 198 190 187 186 192 181 180 160 171 168 168 180 199
191 191 190 188 173 188 157 137 55 80 68 71 63 40 332 60 11 347 192 232 172 131 180 198 198 194 194 182 177 175 188 190 198 179 183 165 166 172 169 166 189 202 204
208 178 169 207 169 187 165 183 177 111 92 71 82 75 69 41 20 28 68 70 73 90 360 116 94 279 177 171 165 174 180 191 175 176 173 174 172 174 170 172 192 209 209
94 65 156 158 162 160 139 173 190 193 183 132 55 55 63 67 69 94 107 96 99 63 88 104 122 153 169 146 157 195 175 190 184 177 171 148 172 176 177 187 193 198 210
121 92 73 93 100 96 123 156 142 140 140 123 133 105 79 84 80 68 62 112 131 127 129 143 178 178 175 200 194 190 180 170 150 137 140 183 187 180 179 196 198 200 193
90 104 124 129 129 145 153 150 148 144 150 150 152 119 125 160 123 138 214 170 186 207 241 242 183 185 162 156 142 121 129 135 154 170 196 182 185 189 191 191 203 172 195
130 153 128 142 130 125 109 111 100 147 163 218 43 44 43 226 198 154 214 215 209 198 217 191 158 164 167 165 139 129 142 160 181 193 178 186 191 198 205 194 197 199 182
134 124 121 112 112 116 104 100 96 92 107 146 128 88 32 277 266 154 195 247 176 157 135 146 178 174 172 159 152 159 185 185 185 189 189 192 188 195 195 208 192 204 205
88 89 84 79 95 104 67 88 112 110 93 87 105 131 178 200 232 168 172 216 211 166 148 170 162 168 178 178 190 203 184 176 184 201 190 181 180 190 209 203 201 201 200
51 58 72 72 43 76 97 97 84 65 91 102 139 132 164 150 167 173 186 169 176 169 173 183 184 186 195 199 189 179 198 180 162 181 186 188 200 183 205 198 206 206 203
59 68 59 64 50 56 60 48 27 57 87 72 56 39 324 147 195 184 175 183 171 177 178 179 179 159 171 174 170 159 92 55 159 176 192 205 211 193 205 203 208 202 206
76 69 65 60 47 50 59 50 39 27 30 27 31 27 9 19 16 16 36 208 170 194 194 187 165 175 166 174 149 117 105 107 117 55 197 208 203 208 198 221 202 211 195